Tracking 21612 objects as of 20-Oct-2020
HD Live streaming from Space Station
objects crossing your sky now

COSMOS 1455

Track COSMOS 1455 now!
10-day predictions
COSMOS 1455 is classified as:


NORAD ID: 14032
Int'l Code: 1983-037A
Perigee: 506.3 km
Apogee: 529.3 km
Inclination: 82.5 °
Period: 94.8 minutes
Semi major axis: 6888 km
RCS: 6.2678 m2 (large)
Launch date: April 23, 1983
Source: Commonwealth of Independent States (former USSR) (CIS)
Launch site: PLESETSK MISSILE AND SPACE COMPLEX (PKMTR)
aabbcc
Your satellite tracking list
Your tracking list is empty




NASA's NSSDC Master Catalog

Two Line Element Set (TLE):
1 14032U 83037A   20294.44800810 +.00000589 +00000-0 +26948-4 0  9998
2 14032 082.5140 319.9376 0016695 358.4008 001.7169 15.18414725046399
Source of the keplerian elements: AFSPC